Terug naar catalogus

ISO

ActiefWetenschapHEO
NORAD 23715·PAYLOAD·🇪🇺 EU

Gelanceerd Nov 17, 1995 vanaf Guiana Space Centre

Loading…

Volgende Passages (komende 24 uur)

TLE

VersSource: Space-Track

Epoch: Sep 13, 2026, 20:24 UTC

1 23715U 95062A   26256.85067171 -.00000438  00000-0 -32695-3 0  9991
2 23715   0.5258  19.6704 8326062 299.2826   2.6747  1.02205213114606

Volg ISO in realtime met AllMySat

Download on the App Store